Regional Weather Roundup
Issued by NWS

Home | Current Version | Previous Version | Graphics & Text | Print | Product List | Glossary On
Versions: 1 2 3 4 5 6 7 8 9 10 11 12 13 14 15 16 17 18 19 20 21 22 23 24 25 26 27 28 29 30 31 32 33 34 35 36 37 38 39 40 41 42 43 44 45 46 47 48 49 50
000
ASUS45 KCYS 201110
RWRWY

WYOMING REGIONAL WEATHER ROUNDUP
NATIONAL WEATHER SERVICE CHEYENNE WY
400 AM MST FRI JAN 20 2017

NOTE:  "FAIR" INDICATES FEW OR NO CLOUDS BELOW 12,000 FEET
WITH NO SIGNIFICANT WEATHER AND/OR OBSTRUCTIONS TO VISIBILITY.

WYZ001-201200-
YELLOWSTONE NATIONAL PARK

CITY           SKY/WX    TMP DP  RH WIND       PRES   REMARKS
LK YELLOWSTONE   N/A     20  18  92 CALM      29.55F
W YELLOWSTONE  NOT AVBL

$$
WYZ002>013-054>058-071-098>099-201200-
NORTHERN WYOMING

CITY           SKY/WX    TMP DP  RH WIND       PRES   REMARKS
JACKSON        CLOUDY    21  19  93 CALM      29.56F
CODY           FAIR      31  22  69 CALM      29.49F
GREYBULL       CLOUDY    26  20  77 SE6       29.51F WCI  19
WORLAND        CLOUDY    28  24  85 SW3       29.50F
SHERIDAN       CLOUDY    35  30  82 W16       29.48F WCI  25
BUFFALO        CLOUDY    33  25  72 NW12      29.46F WCI  24
GILLETTE       CLOUDY    31  25  78 W14       29.45F WCI  21
HULETT         FAIR      27  19  74 SW7       29.44F WCI  19
NEWCASTLE      FAIR      19  14  79 NW6       29.43S WCI  11

$$
WYZ014>020-022>026-101>103-201200-
CENTRAL WYOMING

CITY           SKY/WX    TMP DP  RH WIND       PRES   REMARKS
BIG PINEY      FAIR       4   3  96 SE3       29.56F FOG
PINEDALE       FAIR       1   0  92 MISG      29.56F
DUBOIS         NOT AVBL
LANDER         CLOUDY    21  15  78 E5        29.49F WCI  15
RIVERTON       CLOUDY    20  14  77 NW5       29.51F WCI  13
CASPER         CLOUDY    30  28  92 SW10      29.49F WCI  21
DOUGLAS        CLOUDY    33  26  75 NW12      29.47S WCI  24

$$
WYZ021-027>030-104>119-201200-
SOUTHERN WYOMING

CITY           SKY/WX    TMP DP  RH WIND       PRES   REMARKS
EVANSTON       CLOUDY    24  20  84 SW8       29.58R FOG     WCI  15
ROCK SPRINGS   CLOUDY    21  19  92 W8        29.56F WCI  11
RAWLINS        CLOUDY    26  21  81 SW16      29.52F WCI  14
LARAMIE        CLOUDY    22  18  85 E6        29.47F WCI  14
CHEYENNE       MOCLDY    33  20  58 NW6       29.45F WCI  28
TORRINGTON     FAIR      26  21  81 NW5       29.44F WCI  20

$$



USA.gov is the U.S. government's official web portal to all federal, state and local government web resources and services.